Probability
10 8 7 7 5 2 0 0 0 0 0 0 0 0 0 0 0 0 0 0 0 0 0 0 0 1 1 1 0 0 0 0 0 0 0 0 0 0 0 1 2 2 2 3 5 7 7 5 2
11 9 8 7 4 1 0 0 0 0 0 0 0 0 0 0 0 0 0 0 0 0 0 1 1 2 2 1 0 0 0 0 0 0 0 0 0 0 1 2 3 3 4 4 5 7 6 4 2
12 11 9 6 2 0 0 0 0 0 0 0 0 0 0 0 0 0 0 0 0 0 1 2 3 3 4 3 1 0 0 0 0 0 0 1 0 1 2 4 5 5 4 3 4 5 5 3 2
12 10 7 3 1 0 0 0 0 0 0 0 0 0 0 0 0 0 0 0 0 0 1 2 3 4 5 4 2 1 1 1 0 0 0 1 1 1 3 4 6 6 5 4 3 5 5 4 3
10 7 3 1 0 0 0 0 0 0 0 0 0 0 0 0 0 0 0 0 0 0 0 1 3 4 4 4 2 1 2 2 2 1 0 1 2 3 4 5 7 8 8 7 6 6 6 5 4
6 3 1 0 0 0 0 0 0 0 0 0 0 0 0 0 0 0 0 0 0 0 0 1 2 3 3 3 1 1 2 3 3 2 1 1 3 3 4 6 8 10 11 10 8 7 7 5 4
3 2 0 0 0 0 0 0 0 0 0 0 0 0 0 0 0 0 0 0 0 0 0 0 1 1 2 2 1 0 1 1 2 2 2 3 3 4 5 6 8 10 11 11 9 8 7 6 5
3 2 1 0 0 0 0 0 0 0 0 0 0 0 0 0 0 0 0 0 0 0 0 0 0 0 1 1 0 0 0 0 0 1 2 3 3 3 5 6 7 8 9 9 8 8 8 7 5
4 2 1 0 0 0 0 0 0 0 0 0 0 0 0 0 0 0 0 0 0 0 0 0 0 0 0 0 0 0 0 1 1 1 2 2 2 2 3 4 5 5 5 5 6 7 8 6 4
3 1 0 0 0 0 0 0 0 0 0 0 1 1 0 0 0 0 0 0 0 0 0 0 0 0 0 0 0 0 1 2 2 2 2 3 3 2 2 2 4 4 3 2 3 5 6 5 2
2 1 1 0 0 0 0 0 0 0 0 1 2 2 1 0 0 0 0 0 0 0 0 0 0 0 0 0 0 0 1 3 2 2 2 3 3 3 1 2 5 6 4 2 2 3 5 3 1
3 2 1 0 0 0 0 0 0 0 0 1 2 3 2 1 0 0 0 0 0 0 0 0 0 0 0 0 0 0 2 2 2 1 2 3 3 2 2 3 6 7 5 2 1 2 2 1 0
2 2 1 0 0 0 0 0 0 0 0 1 3 3 2 1 0 1 1 0 0 0 0 0 1 1 0 0 0 0 1 2 2 1 2 3 4 4 3 3 5 5 4 1 0 1 1 0 1
1 1 0 0 0 0 0 0 0 0 1 2 3 3 2 1 1 2 2 1 0 0 0 0 1 1 0 0 0 0 1 2 2 1 1 3 5 5 4 2 2 3 2 1 0 0 0 0 1
0 0 0 0 0 0 0 0 0 0 1 2 3 3 2 1 1 2 3 2 1 0 0 0 1 1 1 1 1 2 1 1 1 1 1 2 4 4 4 2 1 1 1 0 0 0 0 0 1
0 0 0 0 0 0 0 0 0 0 0 1 1 3 3 1 0 1 2 2 1 0 0 0 1 2 3 3 3 3 2 1 0 0 1 1 2 2 3 3 3 2 1 0 0 0 0 0 0
0 0 0 0 0 0 0 0 0 0 0 0 1 2 2 2 1 0 1 1 1 0 0 1 3 4 5 5 5 4 2 1 0 0 0 1 1 2 3 3 3 3 1 0 0 0 0 0 0
0 0 0 0 0 0 0 0 0 0 0 0 0 1 1 2 1 0 0 0 0 0 1 3 5 6 5 5 6 4 2 1 1 1 1 1 2 3 3 3 3 2 1 0 0 0 0 0 0
0 0 0 0 0 0 0 0 0 0 0 0 0 0 1 2 2 1 0 0 0 1 2 3 4 5 4 4 5 5 3 2 2 2 1 2 3 4 4 3 2 1 0 0 1 2 1 0 0
0 0 0 0 0 0 0 0 0 0 0 0 0 0 1 2 3 2 0 0 0 1 2 2 3 3 3 3 5 7 6 4 3 3 2 2 3 3 3 3 2 1 0 1 5 5 3 1 1
0 0 0 0 0 0 0 0 0 0 0 0 1 2 1 2 3 4 2 0 0 1 2 3 2 3 3 3 5 8 8 5 4 3 2 3 3 4 4 4 4 4 3 4 8 9 7 5 5
0 0 0 0 0 0 0 0 0 0 0 0 1 2 1 1 3 4 4 1 0 1 2 3 4 5 6 7 8 9 9 7 5 4 3 3 4 5 6 6 8 8 8 9 12 13 11 10 9
0 0 0 0 0 0 0 0 0 0 0 0 1 1 1 1 3 5 4 2 1 0 1 3 5 7 10 12 12 11 10 8 8 8 7 7 7 8 9 9 10 11 12 14 15 15 15 13 12
0 0 0 0 0 0 0 0 0 0 0 0 0 0 1 2 4 6 6 4 2 0 0 1 4 9 13 14 14 14 12 12 13 13 13 13 11 12 13 12 12 13 14 16 18 18 17 16 15
0 0 0 0 0 0 0 0 0 0 0 0 0 1 3 4 5 7 9 8 4 2 1 2 5 10 13 14 15 15 14 15 17 18 18 17 15 15 15 15 15 15 16 18 20 20 19 17 16
0 0 0 0 0 0 0 0 0 0 0 0 0 2 4 6 7 9 11 11 8 4 3 4 7 11 12 13 14 14 15 16 18 21 21 18 16 15 14 15 17 18 18 20 20 19 18 16 14
0 0 0 0 0 0 0 0 0 0 0 0 1 3 5 7 8 10 11 12 10 7 6 6 8 10 12 13 13 13 14 16 19 22 22 19 16 14 13 15 18 20 20 20 19 17 16 15 13
0 0 0 0 0 0 0 0 0 0 0 0 1 4 7 9 11 12 13 13 13 11 9 8 9 10 12 13 14 14 16 19 23 25 24 22 19 15 14 17 19 21 21 20 18 14 13 13 12
0 0 0 0 0 0 0 0 0 0 1 1 3 6 10 13 15 15 15 15 16 15 14 14 14 12 12 15 17 17 19 22 26 27 26 24 21 18 18 19 21 21 20 18 15 12 11 12 12
0 0 0 0 0 0 0 0 0 1 2 2 3 6 13 18 18 18 16 16 16 18 19 20 19 15 13 16 20 21 20 22 25 26 25 24 22 20 20 20 21 20 18 15 13 12 11 12 12
Wind_Speed
11 8 5 5 4 6 12 10 8 8 7 7 6 6 7 9 8 8 6 5 4 4 5 6 6 5 6 6 6 6 6 6 6 6 6 7 7 8 8 9 9 9 10 10 10 11 11 11 12
7 6 6 5 2 10 12 10 11 10 8 6 6 6 8 9 7 7 5 5 4 4 5 7 7 6 6 6 7 7 7 6 6 6 6 6 7 7 8 9 9 9 9 9 10 10 11 11 11
6 6 5 1 9 11 11 10 10 10 6 4 5 6 6 7 6 5 6 5 5 5 5 8 6 6 6 6 6 7 6 6 6 6 6 6 6 7 8 8 9 9 9 9 9 9 10 11 11
5 6 3 6 15 13 11 9 8 8 8 6 5 8 8 6 5 6 7 5 5 6 5 8 6 6 6 6 6 7 7 6 6 6 6 6 7 7 8 8 8 8 9 9 9 9 9 11 11
6 2 6 12 15 11 10 8 7 7 7 7 6 9 9 7 7 8 6 5 5 6 5 7 6 5 6 6 6 6 6 6 6 6 7 7 7 8 8 8 8 8 8 8 8 7 9 11 11
4 1 7 12 13 10 9 7 7 10 9 7 7 9 9 7 7 7 6 5 5 5 5 6 7 5 5 5 6 6 5 5 6 6 7 7 7 7 8 8 8 8 8 7 6 6 8 10 11
2 5 11 12 11 11 8 6 7 8 8 7 5 8 8 7 6 6 5 5 5 5 5 4 4 5 5 6 6 5 5 5 6 6 6 6 7 7 8 8 8 8 8 7 6 6 8 10 11
2 3 10 10 10 11 8 6 6 6 9 6 3 5 7 7 6 6 5 5 4 4 4 4 4 3 3 5 7 5 6 5 5 6 6 6 7 8 9 8 9 9 9 7 7 8 9 10 11
4 4 10 10 9 9 7 7 7 6 8 7 6 7 9 9 7 6 5 5 4 4 3 3 4 3 4 4 5 5 5 4 3 5 5 4 4 6 7 10 9 9 8 8 7 8 10 10 11
1 8 12 9 8 8 7 7 7 7 8 7 8 9 10 9 7 6 5 5 4 3 3 3 3 3 4 3 3 2 3 4 3 4 4 3 4 4 6 9 9 9 8 9 9 9 9 6 7
5 9 9 8 7 7 8 8 6 6 7 7 8 10 10 8 6 5 4 4 4 3 2 3 3 3 3 3 3 2 2 3 3 4 3 3 3 3 3 4 6 6 7 5 7 6 5 5 5
6 7 7 7 6 6 7 8 7 7 9 8 9 10 9 8 6 5 4 3 3 3 3 3 3 3 3 3 3 3 3 3 3 4 3 3 3 3 3 3 4 4 4 4 4 4 6 6 6
6 7 7 6 6 7 7 7 7 9 9 9 10 9 8 7 5 4 4 4 3 3 2 3 3 3 3 3 2 3 3 3 4 3 4 3 3 3 4 3 3 4 4 5 4 5 6 6 6
6 6 6 6 6 6 6 7 6 8 8 9 9 9 8 6 5 4 4 3 2 2 3 3 3 3 3 2 2 2 3 3 3 4 4 4 3 4 4 4 3 4 4 4 4 6 5 5 5
6 6 7 6 5 4 4 7 6 8 8 9 8 7 7 6 5 4 4 3 3 2 2 3 3 3 3 2 2 3 3 3 3 4 4 4 4 4 3 4 4 4 4 5 4 5 5 5 5
6 5 6 7 3 3 4 7 8 8 8 8 7 7 6 6 5 4 4 4 3 3 3 2 2 3 3 2 2 2 3 4 3 4 4 4 4 4 3 3 4 4 4 4 4 4 4 4 4
5 3 5 7 4 3 2 5 8 7 7 7 7 7 6 6 5 5 5 4 4 3 3 3 2 3 3 3 3 3 3 3 3 3 3 4 4 3 3 3 4 3 3 3 4 4 4 4 4
3 3 4 4 5 3 2 3 7 7 6 6 7 7 6 6 6 6 5 5 4 4 3 3 3 3 2 3 3 3 3 3 3 3 3 3 3 3 3 3 4 3 3 3 4 4 3 3 3
1 1 3 4 4 3 2 1 4 7 7 7 7 7 7 6 7 6 6 6 5 5 4 4 3 3 2 2 2 3 3 3 3 3 4 3 3 3 2 3 3 3 3 3 4 4 4 3 3
3 2 2 4 3 3 1 1 3 6 7 7 7 7 7 8 8 7 7 7 6 6 5 5 5 4 3 2 2 1 2 2 3 3 3 3 3 2 3 3 3 3 3 4 3 3 2 2 2
5 3 1 1 3 5 4 4 6 6 6 6 7 7 7 8 9 9 8 8 7 7 6 5 4 4 3 3 3 3 3 2 2 2 3 2 2 2 2 2 2 2 3 3 3 3 3 1 2
5 1 2 2 4 1 3 1 5 6 7 7 7 8 8 9 9 9 9 9 8 8 7 6 6 5 4 4 3 3 2 2 2 1 2 2 3 2 3 3 3 3 2 3 4 3 3 3 2
1 1 3 4 4 4 3 4 4 6 4 6 7 7 8 9 9 10 9 9 9 8 7 7 6 6 5 4 4 4 3 2 2 2 3 2 2 3 3 3 3 3 3 2 2 2 3 3 3
5 5 5 6 6 4 1 4 2 3 2 3 5 6 7 8 9 9 9 9 8 8 8 7 7 6 6 5 4 4 3 3 2 2 3 3 3 3 3 3 3 4 3 3 3 3 4 3 3
9 8 6 6 5 1 1 4 2 3 1 2 4 6 7 8 9 10 10 10 9 9 8 8 8 7 7 6 6 5 5 4 4 4 3 3 3 3 3 3 3 3 3 4 3 4 3 4 4
10 10 7 5 3 2 5 3 2 2 2 2 4 5 7 8 8 9 10 10 9 10 9 9 8 7 7 6 6 5 5 4 3 3 3 3 2 2 2 3 3 3 4 4 3 4 4 3 4
9 9 6 7 6 6 2 2 3 3 3 4 5 6 7 7 8 8 9 9 9 9 9 9 9 7 6 6 6 5 5 4 3 3 4 3 2 2 3 3 3 3 4 4 4 3 3 3 5
7 6 6 7 6 6 4 4 1 3 4 5 5 6 6 6 7 7 8 8 8 8 8 8 8 7 6 6 6 5 5 4 4 3 2 2 2 2 3 3 4 3 4 4 4 4 4 4 4
9 9 8 6 7 8 4 1 3 1 3 4 5 5 6 6 6 7 7 8 8 8 8 8 7 7 7 6 5 4 4 4 3 3 2 2 2 2 3 3 3 4 4 4 4 5 5 6 5
9 10 10 8 6 7 7 1 4 2 3 3 4 5 5 5 5 6 7 7 7 7 7 7 7 7 6 6 5 5 4 3 3 3 3 2 2 3 3 3 4 4 4 5 5 6 5 6 6
Wind_Direction
176 187 213 233 216 87 69 67 75 79 72 65 59 54 57 42 31 67 77 75 64 70 83 93 73 64 66 69 76 80 79 85 95 99 102 112 118 119 124 125 128 135 139 140 145 146 147 147 144
174 194 227 234 93 83 70 69 73 69 83 91 79 70 71 67 54 81 89 77 79 77 83 78 76 68 65 67 72 75 74 79 92 96 95 106 120 122 125 129 129 132 137 138 141 145 150 150 147
187 229 255 93 64 68 78 76 82 85 82 77 81 64 56 63 73 77 83 99 99 87 81 85 77 68 63 65 70 72 72 75 87 95 95 99 113 125 128 129 131 135 138 140 142 146 152 155 152
222 220 210 83 75 70 82 92 98 101 86 73 87 85 76 55 63 85 103 103 101 96 89 89 78 68 60 63 69 70 71 72 77 91 97 95 102 118 123 122 126 132 139 141 142 147 153 156 156
237 226 102 86 79 80 83 88 95 89 82 80 82 91 83 74 85 98 103 98 89 87 85 92 83 69 62 65 69 66 64 65 71 83 92 95 96 103 111 118 121 126 133 135 137 144 150 153 152
235 156 85 83 87 89 86 92 97 90 94 95 96 98 84 92 99 100 95 86 83 81 83 90 102 84 73 75 72 66 61 58 65 78 89 92 94 105 116 120 124 124 126 128 129 132 143 150 152
23 69 79 85 91 90 87 88 85 92 91 81 87 96 101 105 101 104 103 100 86 80 81 82 93 108 108 94 78 67 61 62 62 70 90 100 100 106 115 120 123 122 122 123 123 126 132 143 149
318 100 88 83 85 85 95 95 84 86 87 90 78 90 111 122 122 115 110 101 94 86 77 76 72 73 88 100 98 85 77 73 72 76 96 111 117 118 122 123 119 120 121 122 126 131 133 131 134
251 93 75 72 78 95 110 110 98 92 101 91 72 74 105 126 129 122 116 111 99 84 73 74 87 86 75 75 94 118 119 103 105 100 100 130 115 113 122 101 112 121 121 121 121 125 126 131 129
20 68 66 62 73 98 108 102 109 122 113 106 102 100 118 133 135 129 121 112 96 82 86 77 69 69 75 70 85 82 92 97 90 81 93 97 93 93 101 110 113 116 117 119 114 117 131 144 128
67 71 75 78 80 96 104 102 106 115 104 109 121 127 135 139 137 133 119 103 99 102 95 97 86 55 48 65 67 63 62 78 93 91 98 97 103 110 109 118 128 126 133 125 123 130 112 104 99
88 80 80 83 88 95 97 105 100 83 81 102 120 135 143 148 146 137 125 115 108 95 85 79 86 88 55 41 60 74 69 72 72 83 72 89 89 92 96 98 103 115 110 113 112 109 103 104 110
103 96 90 95 99 95 107 103 98 97 102 116 127 139 144 145 143 137 131 128 114 107 95 87 76 76 71 63 31 65 67 69 79 76 77 75 86 91 95 95 96 104 112 126 123 114 115 115 113
102 106 108 112 110 117 118 114 115 112 124 131 140 144 146 145 148 141 140 137 135 127 107 97 94 90 78 76 70 68 77 85 75 76 74 74 84 88 94 106 102 101 102 103 112 119 119 113 109
136 132 124 118 124 129 150 124 114 125 142 143 148 148 148 151 155 156 151 150 144 134 109 112 115 102 92 73 70 78 83 86 79 82 80 79 90 95 102 108 111 101 106 118 121 119 117 120 117
175 171 125 116 135 146 232 96 115 144 157 151 154 153 158 158 161 158 156 159 155 149 139 138 126 116 110 91 67 72 74 82 83 86 90 88 88 96 103 105 104 106 113 118 118 123 119 118 120
183 136 104 122 146 160 221 94 121 158 167 158 160 160 166 163 165 160 164 168 164 159 153 151 134 124 120 120 117 103 94 85 84 82 83 93 99 103 107 98 99 120 116 119 122 116 121 123 123
134 120 108 111 137 187 198 105 133 167 180 169 168 166 170 173 172 169 171 170 162 159 156 151 146 137 143 139 128 111 102 104 96 92 86 90 106 111 115 117 115 126 117 117 113 116 118 124 135
130 139 105 96 119 203 208 185 149 166 187 184 178 174 176 178 167 167 173 174 168 167 165 163 160 147 154 128 132 121 120 116 109 110 106 111 112 116 115 111 119 127 121 125 133 134 139 142 142
209 205 150 125 134 235 260 234 166 174 191 193 186 183 182 178 172 171 176 178 178 177 177 174 174 168 172 138 124 118 111 120 112 108 113 120 126 133 138 133 147 134 135 144 146 156 162 160 172
221 241 208 115 161 203 260 186 157 166 185 191 196 193 189 186 181 178 182 185 185 184 185 181 178 175 178 167 160 146 146 151 136 138 138 144 150 147 131 151 158 159 178 159 171 181 198 193 180
207 203 251 222 238 177 281 346 129 157 175 190 197 197 196 191 187 183 183 187 190 187 182 181 180 183 183 189 182 174 165 152 134 163 139 155 163 163 163 168 177 196 190 171 199 189 217 223 221
209 171 231 243 253 255 211 277 113 146 178 186 189 194 193 191 189 186 187 185 189 187 183 178 180 185 187 195 190 200 195 175 166 170 157 186 170 184 189 185 193 204 211 205 229 210 237 237 249
171 185 199 225 243 238 300 279 96 115 158 170 176 184 188 187 184 183 181 181 185 186 186 182 180 185 190 198 200 207 209 206 194 198 186 196 185 187 186 195 201 212 216 209 220 229 228 247 260
209 225 225 221 220 198 154 263 55 64 117 174 173 176 178 179 179 179 179 180 184 186 186 186 184 188 192 198 203 205 212 213 213 220 206 223 206 191 185 207 211 217 214 215 219 223 244 239 242
217 239 259 273 275 194 190 241 78 89 142 161 165 166 168 174 175 179 180 180 184 184 186 187 187 194 195 197 202 207 214 221 214 219 241 227 238 209 182 211 218 224 223 219 212 226 223 233 243
214 235 266 261 263 264 199 176 172 150 168 166 163 161 167 173 173 179 180 180 182 183 186 188 186 191 197 200 198 204 215 230 234 222 233 233 231 219 200 212 216 223 223 221 219 230 230 230 235
261 233 229 249 261 256 217 215 167 161 176 169 169 167 166 171 174 177 178 177 179 182 182 186 186 187 195 201 209 198 202 211 223 237 231 247 244 244 222 221 220 226 229 222 226 228 222 228 232
202 218 241 251 265 269 253 189 78 158 177 177 172 167 161 171 172 172 172 171 172 174 174 176 181 183 188 195 197 203 200 199 205 213 224 230 238 231 229 230 227 226 228 225 227 240 237 237 238
233 233 226 237 241 261 272 162 95 131 154 166 164 153 157 168 167 164 162 164 169 173 176 174 179 181 183 183 185 191 194 198 205 208 221 226 229 233 233 233 234 236 231 227 228 237 238 241 241